Location: Kellogg
(38.0159°N, 90.0546°W)
Time: 19:10:26
(UTC+00:00)

Altair - Pass Details

Date: 14 September 2024
Orbit: 1501 x 1682 km, 47.2° (Epoch: 15 October)

Event Time Altitude Azimuth Distance (km) Brightness Sun altitude
Rises 16:15:44 0° 299° (WNW) 4,932 9.8 48.2°
Reaches altitude 10° 16:19:13 10° 292° (WNW) 3,931 9.4 48.7°
Maximum altitude 16:28:08 38° 229° (SW) 2,343 9.0 49.7°
Drops below altitude 10° 16:36:48 10° 166° (SSE) 3,812 10.4 50.7°
Sets 16:40:09 0° 158° (SSE) 4,768 10.7 51.0°
